(113627) = 2002 TH67

Discovered at Essen on 2002-10-06 by Essen.

Orbit

Orbit type: Main Belt

Note: WebGL enabled browser required.

epoch2023-09-13.0
epoch JD2460200.5
perihelion date2023-05-14.43228
perihelion JD2460078.93228
argument of perihelion (°)312.64766
ascending node (°)325.51088
inclination (°)12.69450
eccentricity0.2484898
perihelion distance (AU)1.9853645
Tisserand w.r.t. Jupiter3.3
ΔV w.r.t. Earth (km/sec)9.6
semimajor axis (AU)2.6418330
mean anomaly (°)27.90385
mean daily motion (°/day)0.22953340
aphelion distance (AU)3.298
period (years)4.29
P-vector [x]0.15209368
P-vector [y]-0.83030494
P-vector [z]-0.53615410
Q-vector [x]0.98050165
Q-vector [y]0.05845784
Q-vector [z]0.18761448
absolute magnitude14.88
phase slope0.15
uncertainty0
referenceMPEC 2024-A34
observations used1402
oppositions19
arc length (days)11569
first opposition used1992
last opposition used2023
residual rms (arc-secs)0.62
perturbers coarse indicatorM-v
perturbers precise indicator003Ek
first observation date used1992-03-05.0
last observation date used2023-11-07.0
computer nameMPCLINUX
JD of orbit computation2456877.802801
perihelion JD uncertainty (days)5.1311E-05
argument of perihelion uncertainty (°)2.3002E-05
ascending node uncertainty (°)1.9958E-05
inclination uncertainty (°)6.0078E-06
eccentricity uncertainty 5.1743E-08
perihelion distance uncertainty (AU)1.4905E-07
Minimum Orbit Intersection Distances (in AU)
for orbit epoch: 2460200.5, reference: E2024-A34
Mercury1.52653
Venus1.2676
Earth0.99223
Mars0.59385
Jupiter1.98436
Saturn5.83504
Uranus15.4233
Neptune26.8305

Observations

1421 total observations over interval: 1992 03 05.09236 – 2023 11 07.115174
These data are available for download (format description).

Date (UT) J2000 RA J2000 Dec Magn Location Ref
1992 03 05.09236 10 22 35.56 +05 26 13.0 19.7   809 – European Southern Observatory, La Silla MPS 96358
2001 04 21.21433 12 35 38.30 -24 10 00.4 18.5   704 – Lincoln Laboratory ETS, New Mexico MPS 96358
2001 04 21.22847 12 35 37.51 -24 09 57.6 18.8   704 – Lincoln Laboratory ETS, New Mexico MPS 96358
2001 04 21.25675 12 35 35.72 -24 09 49.9 19.1   704 – Lincoln Laboratory ETS, New Mexico MPS 96358
2001 04 21.27019 12 35 34.89 -24 09 48.5 18.7   704 – Lincoln Laboratory ETS, New Mexico MPS 96358
2002 08 30.36228 01 33 46.70 +23 36 19.7 18.9   704 – Lincoln Laboratory ETS, New Mexico MPS 83014
2002 08 30.37627 01 33 46.40 +23 36 24.8 19.3   704 – Lincoln Laboratory ETS, New Mexico MPS 83014
2002 08 30.39015 01 33 46.12 +23 36 30.0 19.5   704 – Lincoln Laboratory ETS, New Mexico MPS 83014
2002 09 27.47802 01 14 03.26 +25 00 16.5 18.5   644 – Palomar Mountain/NEAT MPS 63961
2002 09 27.48864 01 14 02.62 +25 00 16.1 18.6   644 – Palomar Mountain/NEAT MPS 63961
2002 09 27.49915 01 14 01.97 +25 00 16.3 18.9   644 – Palomar Mountain/NEAT MPS 63961
2002 10 04.36126 01 06 57.58 +24 52 33.6 18.1 R 699 – Lowell Observatory-LONEOS MPS 63961
2002 10 04.37877 01 06 56.50 +24 52 31.4   699 – Lowell Observatory-LONEOS MPS 63961
2002 10 04.39634 01 06 55.24 +24 52 30.1   699 – Lowell Observatory-LONEOS MPS 63961
2002 10 04.41391 01 06 54.12 +24 52 27.9   699 – Lowell Observatory-LONEOS MPS 63961
2002 10 06.26239 01 04 56.79 +24 48 28.4 18.7   704 – Lincoln Laboratory ETS, New Mexico MPS 63961
2002 10 06.27796 01 04 55.75 +24 48 25.4 19.1   704 – Lincoln Laboratory ETS, New Mexico MPS 63961
2002 10 06.29347 01 04 54.71 +24 48 24.3 19.0   704 – Lincoln Laboratory ETS, New Mexico MPS 63961
2002 10 06.30891 01 04 53.73 +24 48 22.2 19.0   704 – Lincoln Laboratory ETS, New Mexico MPS 63961
2002 10 06.32441 01 04 52.70 +24 48 19.1 19.0   704 – Lincoln Laboratory ETS, New Mexico MPS 63961
2002 10 06.90693 01 04 15.67 +24 46 51.9 18.3 R 636 – Essen MPS 63961
2002 10 06.91084 01 04 15.41 +24 46 51.5 18.0 R 636 – Essen MPS 63961
2002 10 06.91476 01 04 15.14 +24 46 50.5 17.8 R 636 – Essen MPS 63962
2002 10 06.99589 01 04 09.84 +24 46 38.4 18.2 R 636 – Essen MPS 63962
2002 10 06.99980 01 04 09.60 +24 46 37.4 18.3 R 636 – Essen MPS 63962
2002 10 07.00372 01 04 09.33 +24 46 36.8 18.1 R 636 – Essen MPS 63962
2002 10 08.77601 01 02 16.33 +24 41 45.8   636 – Essen MPS 63962
2002 10 08.77993 01 02 16.10 +24 41 44.9 18.0 R 636 – Essen MPS 63962
2002 10 08.78385 01 02 15.80 +24 41 45.6 18.3 R 636 – Essen MPS 63962
2002 10 08.78779 01 02 15.60 +24 41 43.7 18.2 R 636 – Essen MPS 63962
2002 10 08.79171 01 02 15.33 +24 41 43.6 18.1 R 636 – Essen MPS 63962
2002 10 08.93201 01 02 06.35 +24 41 19.6 18.6 V 611 – Starkenburg Sternwarte, Heppenheim MPS 63962
2002 10 08.93417 01 02 06.00 +24 41 19.0   611 – Starkenburg Sternwarte, Heppenheim MPS 63962
2002 10 08.93966 01 02 05.89 +24 41 19.1   611 – Starkenburg Sternwarte, Heppenheim MPS 63962
2002 10 09.03750 01 01 59.37 +24 41 00.7 17.5 R 239 – Trebur MPS 63962
2002 10 09.04139 01 01 59.07 +24 41 00.3 17.7 R 239 – Trebur MPS 63962
2002 10 09.05502 01 01 58.22 +24 40 57.9 17.9 R 239 – Trebur MPS 63962
2002 10 10.25099 01 00 42.16 +24 37 17.0 18.3   704 – Lincoln Laboratory ETS, New Mexico MPS 63962
2002 10 10.26705 01 00 41.11 +24 37 13.6 18.1   704 – Lincoln Laboratory ETS, New Mexico MPS 63962
2002 10 10.28276 01 00 40.05 +24 37 10.7 18.8   704 – Lincoln Laboratory ETS, New Mexico MPS 63962
2002 10 10.29858 01 00 39.03 +24 37 07.7 18.4   704 – Lincoln Laboratory ETS, New Mexico MPS 63962
2002 11 06.80302 00 36 28.07 +22 18 16.7 18.5 R 113 – Volkssternwarte Drebach, Schoenbrunn MPS 66068
2002 11 06.80578 00 36 27.96 +22 18 16.0 18.3 R 113 – Volkssternwarte Drebach, Schoenbrunn MPS 66068
2002 11 06.80834 00 36 27.87 +22 18 15.0 18.4 R 113 – Volkssternwarte Drebach, Schoenbrunn MPS 66068
2002 11 13.10837 00 33 18.56 +21 42 17.2 19.0   644 – Palomar Mountain/NEAT MPS 66068
2002 11 13.12946 00 33 18.00 +21 42 10.5 19.5   644 – Palomar Mountain/NEAT MPS 66068
2002 11 13.15037 00 33 17.46 +21 42 03.6 19.2   644 – Palomar Mountain/NEAT MPS 66068
2003 09 25.10418 06 53 36.11 +34 11 54.5 20.1 R 113 – Volkssternwarte Drebach, Schoenbrunn MPS 94682
2003 09 25.10807 06 53 36.33 +34 11 54.8 20.2 R 113 – Volkssternwarte Drebach, Schoenbrunn MPS 94682
2003 09 25.11196 06 53 36.52 +34 11 55.0 20.3 R 113 – Volkssternwarte Drebach, Schoenbrunn MPS 94682
2003 12 17.27042 06 48 05.13 +36 54 38.2 19.2   704 – Lincoln Laboratory ETS, New Mexico MPS 94682
2003 12 17.28354 06 48 04.21 +36 54 40.1 19.9   704 – Lincoln Laboratory ETS, New Mexico MPS 94682
2003 12 17.29666 06 48 03.35 +36 54 39.7 20.2   704 – Lincoln Laboratory ETS, New Mexico MPS 94682
2003 12 28.29676 06 35 40.05 +36 54 40.2 19.9   704 – Lincoln Laboratory ETS, New Mexico MPS 95791
2003 12 28.31137 06 35 39.08 +36 54 38.4 19.6   704 – Lincoln Laboratory ETS, New Mexico MPS 95791
2003 12 28.32491 06 35 38.16 +36 54 38.4 19.3   704 – Lincoln Laboratory ETS, New Mexico MPS 95791
2003 12 28.33904 06 35 37.10 +36 54 37.6 19.7   704 – Lincoln Laboratory ETS, New Mexico MPS 95791
2004 01 16.16708 06 14 56.93 +36 15 06.9 19.2   644 – Palomar Mountain/NEAT MPS 96997
2004 01 16.22970 06 14 53.18 +36 14 54.9 19.4   644 – Palomar Mountain/NEAT MPS 96997
2004 01 16.29090 06 14 49.52 +36 14 43.4 18.4   644 – Palomar Mountain/NEAT MPS 96997
2005 02 02.36518 11 25 51.53 -01 07 34.2 19.1   704 – Lincoln Laboratory ETS, New Mexico MPS 125656
2005 02 02.37824 11 25 51.17 -01 07 35.3 19.6   704 – Lincoln Laboratory ETS, New Mexico MPS 125656
2005 02 02.41949 11 25 49.81 -01 07 40.7 18.7   704 – Lincoln Laboratory ETS, New Mexico MPS 125656
2005 03 03.32560 11 02 03.84 -01 09 53.1 18.0 R G92 – Jarnac Observatory, Vail MPS 127167
2005 03 03.36244 11 02 01.47 -01 09 49.4 17.9 R G92 – Jarnac Observatory, Vail MPS 127167
2005 03 03.40031 11 01 59.14 -01 09 45.9 17.9 R G92 – Jarnac Observatory, Vail MPS 127167
2005 03 04.27316 11 01 05.48 -01 08 24.3 17.7 R 703 – Catalina Sky Survey MPS 127167
2005 03 04.28338 11 01 04.93 -01 08 22.1 18.0 R 703 – Catalina Sky Survey MPS 127167
2005 03 04.29354 11 01 04.28 -01 08 20.4 18.1 R 703 – Catalina Sky Survey MPS 127167
2005 03 04.30385 11 01 03.62 -01 08 19.5 17.8 R 703 – Catalina Sky Survey MPS 127167
2005 03 04.34656 11 01 00.94 -01 08 15.2 17.7 R G92 – Jarnac Observatory, Vail MPS 127167
2005 03 04.38444 11 00 58.55 -01 08 11.2 17.6 R G92 – Jarnac Observatory, Vail MPS 127167
2005 03 04.42248 11 00 56.13 -01 08 08.1 17.6 R G92 – Jarnac Observatory, Vail MPS 127167
2005 03 08.25565 10 56 58.43 -01 01 15.7 18.3 R 699 – Lowell Observatory-LONEOS MPS 127922
2005 03 08.27510 10 56 57.27 -01 01 13.7   699 – Lowell Observatory-LONEOS MPS 127922
2005 03 08.29458 10 56 56.03 -01 01 12.3   699 – Lowell Observatory-LONEOS MPS 127922
2005 03 08.31408 10 56 54.75 -01 01 09.7   699 – Lowell Observatory-LONEOS MPS 127922
2005 03 08.85222 10 56 21.52 -01 00 07.2 18.8 V 104 – San Marcello Pistoiese MPS 127922
2005 03 08.87273 10 56 20.19 -01 00 05.0 18.6 V 104 – San Marcello Pistoiese MPS 127922
2005 03 08.87847 10 56 19.84 -01 00 04.0 18.5 V 104 – San Marcello Pistoiese MPS 127922
2005 03 10.25514 10 54 54.21 -00 57 17.2 18.2 R 703 – Catalina Sky Survey MPS 127922
2005 03 10.26483 10 54 53.55 -00 57 16.7 18.1 R 703 – Catalina Sky Survey MPS 127922
2005 03 10.27450 10 54 52.95 -00 57 14.5 17.9 R 703 – Catalina Sky Survey MPS 127922
2005 03 10.28418 10 54 52.37 -00 57 13.8 18.0 R 703 – Catalina Sky Survey MPS 127922
2005 03 17.36183 10 47 41.10 -00 41 40.0 18.0 R 703 – Catalina Sky Survey MPS 129042
2005 03 17.37241 10 47 40.37 -00 41 37.7 18.1 R 703 – Catalina Sky Survey MPS 129042
2005 03 17.38113 10 47 39.86 -00 41 36.9 18.0 R 703 – Catalina Sky Survey MPS 129042
2005 03 17.38983 10 47 39.32 -00 41 36.0 18.2 R 703 – Catalina Sky Survey MPS 129042
2005 04 04.23012 10 32 34.22 -00 02 15.9 18.5 R 703 – Catalina Sky Survey MPS 130708
2005 04 04.23841 10 32 33.90 -00 02 14.9 18.2 R 703 – Catalina Sky Survey MPS 130708
2005 04 04.24691 10 32 33.50 -00 02 14.6 18.5 R 703 – Catalina Sky Survey MPS 130708
2005 04 04.25500 10 32 33.18 -00 02 12.8 18.4 R 703 – Catalina Sky Survey MPS 130708
